Location: Kergonan
(48.2337°N, 4.5518°W)
Time: 18:44:04
(UTC+00:00)

SL-16 R/B - Pass Details

Date: 18 January 2020
Orbit: 843 x 846 km, 71.0° (Epoch: 28 February)

Event Time Altitude Azimuth Distance (km) Brightness Sun altitude
Rises 06:40:32 0° 183° (S) 3,387 5.5 -13.3°
Reaches altitude 10° 06:43:04 10° 177° (S) 2,456 4.9 -12.9°
Maximum altitude 06:48:20 42° 108° (ESE) 1,199 3.7 -12.0°
Drops below altitude 10° 06:53:37 10° 40° (NE) 2,474 4.9 -11.2°
Sets 06:56:10 0° 33° (NNE) 3,414 5.5 -10.8°
